When you browse on this site, cookies collect data to enhance your experience and personalize the content and advertising you see.
Visit our Privacy Policy to learn more. By continuing to use the site, you agree to this use of cookies and data.
  • In Schweiz
  • Länderverzeichnis
  • Für 7 Tage
  • Wassertemperatur
  • Wetterkarte
  • Widgets
  • user-avatar
    Anmelden

    Stündliche Wetter Kaprun

    Heute, 22 Februar, Samstag

    Zeit Temperatur Niederschläge Wind Luftdruck Luftfeuchtigkeit
    00:00 -6°C° 0 mm 1 m/S 600 mmHg 58%
    01:00 -4°C° 0 mm 1 m/S 600 mmHg 52%
    02:00 -7°C° 0 mm 2 m/S 600 mmHg 51%
    03:00 -7°C° 0 mm 2 m/S 600 mmHg 50%
    04:00 -7°C° 0 mm 2 m/S 600 mmHg 49%
    05:00 -6°C° 0 mm 2 m/S 600 mmHg 50%
    06:00 -5°C° 0 mm 2 m/S 601 mmHg 51%
    07:00 -5°C° 0 mm 2 m/S 601 mmHg 51%
    08:00 -1°C° 0 mm 1 m/S 602 mmHg 56%
    09:00 +1°C° 0 mm 1 m/S 602 mmHg 61%
    10:00 +3°C° 0 mm 1 m/S 603 mmHg 65%
    11:00 +3°C° 0 mm 1 m/S 603 mmHg 67%
    12:00 +4°C° 0 mm 1 m/S 603 mmHg 69%
    13:00 +5°C° 0 mm 1 m/S 603 mmHg 71%
    14:00 +4°C° 0 mm 1 m/S 603 mmHg 70%
    15:00 +4°C° 0 mm 1 m/S 602 mmHg 70%
    16:00 +4°C° 0 mm 1 m/S 602 mmHg 69%
    17:00 +3°C° 0 mm 1 m/S 602 mmHg 63%
    18:00 +1°C° 0 mm 2 m/S 601 mmHg 57%
    19:00 -1°C° 0 mm 2 m/S 601 mmHg 50%
    20:00 -1°C° 0 mm 2 m/S 601 mmHg 49%
    21:00 -2°C° 0 mm 2 m/S 601 mmHg 48%
    22:00 -2°C° 0 mm 2 m/S 601 mmHg 47%
    23:00 -2°C° 0 mm 2 m/S 601 mmHg 48%

    Morgen, 23 Februar, Sonntag

    Zeit Temperatur Niederschläge Wind Luftdruck Luftfeuchtigkeit
    00:00 -2°C° 0 mm 2 m/S 601 mmHg 50%
    01:00 -2°C° 0 mm 2 m/S 601 mmHg 51%
    02:00 0°C° 0 mm 1 m/S 601 mmHg 54%
    03:00 -1°C° 0 mm 1 m/S 600 mmHg 57%
    04:00 -1°C° 0 mm 1 m/S 600 mmHg 60%
    05:00 -1°C° 0 mm 1 m/S 600 mmHg 60%
    06:00 0°C° 0 mm 1 m/S 600 mmHg 61%
    07:00 0°C° 0 mm 1 m/S 600 mmHg 62%
    08:00 +1°C° 0 mm 1 m/S 600 mmHg 68%
    09:00 +2°C° 0 mm 1 m/S 600 mmHg 74%
    10:00 +3°C° 0 mm 1 m/S 600 mmHg 79%
    11:00 +4°C° 0 mm 1 m/S 600 mmHg 79%
    12:00 +5°C° 0 mm 1 m/S 600 mmHg 79%
    13:00 +6°C° 0 mm 1 m/S 600 mmHg 79%
    14:00 +5°C° 0.1 mm 1 m/S 599 mmHg 83%
    15:00 +4°C° 0.1 mm 1 m/S 599 mmHg 86%
    16:00 +3°C° 0.1 mm 2 m/S 598 mmHg 89%
    17:00 +2°C° 0 mm 2 m/S 598 mmHg 88%
    18:00 +2°C° 0 mm 2 m/S 598 mmHg 87%
    19:00 +2°C° 0 mm 2 m/S 598 mmHg 85%
    20:00 +2°C° 0 mm 2 m/S 598 mmHg 85%
    21:00 +1°C° 0 mm 2 m/S 597 mmHg 85%
    22:00 +1°C° 0 mm 2 m/S 597 mmHg 85%
    23:00 +1°C° 0.1 mm 2 m/S 597 mmHg 87%

    übermorgen, 24 Februar, Montag

    Zeit Temperatur Niederschläge Wind Luftdruck Luftfeuchtigkeit
    00:00 -1°C° 0.1 mm 2 m/S 597 mmHg 89%
    01:00 -1°C° 0.1 mm 2 m/S 597 mmHg 92%
    02:00 -1°C° 0.8 mm 2 m/S 597 mmHg 93%
    03:00 -1°C° 0.8 mm 3 m/S 597 mmHg 95%
    04:00 -1°C° 0.8 mm 3 m/S 597 mmHg 97%
    05:00 -1°C° 1.4 mm 3 m/S 598 mmHg 97%
    06:00 -1°C° 1.4 mm 3 m/S 598 mmHg 97%
    07:00 -1°C° 1.4 mm 3 m/S 599 mmHg 98%
    08:00 -1°C° 1.1 mm 2 m/S 599 mmHg 98%
    09:00 -1°C° 1.1 mm 2 m/S 599 mmHg 98%
    10:00 +1°C° 1.1 mm 1 m/S 599 mmHg 98%
    11:00 +2°C° 0.4 mm 1 m/S 599 mmHg 97%
    12:00 +2°C° 0.4 mm 1 m/S 599 mmHg 96%
    13:00 +2°C° 0.4 mm 1 m/S 599 mmHg 95%
    14:00 +3°C° 0 mm 1 m/S 598 mmHg 93%
    15:00 +3°C° 0 mm 1 m/S 598 mmHg 90%
    16:00 +3°C° 0 mm 1 m/S 597 mmHg 88%
    17:00 +2°C° 0 mm 1 m/S 597 mmHg 86%
    18:00 -1°C° 0 mm 2 m/S 596 mmHg 84%
    19:00 -2°C° 0 mm 2 m/S 596 mmHg 82%
    20:00 -2°C° 0 mm 2 m/S 595 mmHg 81%
    21:00 -2°C° 0 mm 2 m/S 595 mmHg 81%
    22:00 -2°C° 0 mm 2 m/S 595 mmHg 80%
    23:00 0°C° 0 mm 1 m/S 594 mmHg 81%

    25 Februar, Dienstag

    Zeit Temperatur Niederschläge Wind Luftdruck Luftfeuchtigkeit
    00:00 0°C° 0 mm 1 m/S 594 mmHg 81%
    01:00 -1°C° 0 mm 1 m/S 594 mmHg 82%
    02:00 -1°C° 0 mm 1 m/S 593 mmHg 83%
    03:00 -1°C° 0 mm 1 m/S 593 mmHg 84%
    04:00 -3°C° 0 mm 2 m/S 592 mmHg 85%
    05:00 -3°C° 0 mm 2 m/S 592 mmHg 86%
    06:00 -3°C° 0 mm 2 m/S 592 mmHg 87%
    07:00 -3°C° 0 mm 2 m/S 591 mmHg 89%
    08:00 -2°C° 0 mm 2 m/S 591 mmHg 87%
    09:00 +1°C° 0 mm 1 m/S 592 mmHg 85%
    10:00 +2°C° 0 mm 1 m/S 592 mmHg 83%
    11:00 +2°C° 0 mm 1 m/S 591 mmHg 83%
    12:00 +3°C° 0 mm 1 m/S 591 mmHg 82%
    13:00 +3°C° 0 mm 1 m/S 590 mmHg 82%
    14:00 +2°C° 0 mm 1 m/S 590 mmHg 83%
    15:00 +2°C° 0 mm 1 m/S 589 mmHg 84%
    16:00 +2°C° 0 mm 1 m/S 588 mmHg 86%
    17:00 +1°C° 0.1 mm 1 m/S 588 mmHg 87%
    18:00 0°C° 0.1 mm 1 m/S 588 mmHg 89%
    19:00 0°C° 0.1 mm 1 m/S 587 mmHg 91%
    20:00 -1°C° 0.2 mm 1 m/S 587 mmHg 92%
    21:00 -1°C° 0.2 mm 1 m/S 587 mmHg 93%
    22:00 -1°C° 0.2 mm 1 m/S 586 mmHg 94%
    23:00 -2°C° 0.7 mm 1 m/S 586 mmHg 95%

    26 Februar, Mittwoch

    Zeit Temperatur Niederschläge Wind Luftdruck Luftfeuchtigkeit
    00:00 -2°C° 0.7 mm 1 m/S 586 mmHg 96%
    01:00 -2°C° 0.7 mm 1 m/S 585 mmHg 96%
    02:00 -3°C° 0.9 mm 1 m/S 585 mmHg 97%
    03:00 -3°C° 0.9 mm 1 m/S 584 mmHg 97%
    04:00 -3°C° 0.9 mm 1 m/S 584 mmHg 97%
    05:00 -4°C° 0.8 mm 1 m/S 583 mmHg 97%
    06:00 -4°C° 0.8 mm 1 m/S 583 mmHg 96%
    07:00 -6°C° 0.8 mm 1 m/S 582 mmHg 96%
    08:00 -7°C° 0.6 mm 2 m/S 582 mmHg 94%
    09:00 -7°C° 0.6 mm 2 m/S 582 mmHg 93%
    10:00 -7°C° 0.6 mm 2 m/S 582 mmHg 91%
    11:00 -7°C° 0.7 mm 2 m/S 581 mmHg 88%
    12:00 -8°C° 0.7 mm 3 m/S 581 mmHg 85%
    13:00 -8°C° 0.7 mm 3 m/S 581 mmHg 82%
    14:00 -8°C° 0.8 mm 3 m/S 580 mmHg 84%
    15:00 -8°C° 0.8 mm 2 m/S 580 mmHg 86%
    16:00 -8°C° 0.8 mm 2 m/S 580 mmHg 88%
    17:00 -10°C° 1 mm 3 m/S 581 mmHg 90%
    18:00 -12°C° 1 mm 3 m/S 581 mmHg 91%
    19:00 -14°C° 1 mm 4 m/S 582 mmHg 93%
    20:00 -14°C° 0.4 mm 4 m/S 582 mmHg 93%
    21:00 -15°C° 0.4 mm 4 m/S 583 mmHg 93%
    22:00 -15°C° 0.4 mm 4 m/S 583 mmHg 93%
    23:00 -15°C° 0.1 mm 3 m/S 583 mmHg 93%

    27 Februar, Donnerstag

    Zeit Temperatur Niederschläge Wind Luftdruck Luftfeuchtigkeit
    00:00 -16°C° 0.1 mm 3 m/S 583 mmHg 93%
    01:00 -15°C° 0.1 mm 2 m/S 584 mmHg 93%
    02:00 -15°C° 0.2 mm 2 m/S 584 mmHg 93%
    03:00 -15°C° 0.2 mm 2 m/S 585 mmHg 94%
    04:00 -15°C° 0.2 mm 2 m/S 585 mmHg 94%
    05:00 -14°C° 0.5 mm 2 m/S 586 mmHg 94%
    06:00 -14°C° 0.5 mm 2 m/S 586 mmHg 94%
    07:00 -14°C° 0.5 mm 2 m/S 587 mmHg 95%
    08:00 -14°C° 0.5 mm 3 m/S 588 mmHg 92%
    09:00 -13°C° 0.5 mm 3 m/S 589 mmHg 89%
    10:00 -12°C° 0.5 mm 3 m/S 590 mmHg 86%
    11:00 -12°C° 0.2 mm 3 m/S 590 mmHg 80%
    12:00 -10°C° 0.2 mm 3 m/S 590 mmHg 75%
    13:00 -10°C° 0.2 mm 3 m/S 591 mmHg 69%
    14:00 -9°C° 0.1 mm 2 m/S 591 mmHg 68%
    15:00 -9°C° 0.1 mm 2 m/S 591 mmHg 68%
    16:00 -8°C° 0.1 mm 1 m/S 591 mmHg 67%
    17:00 -9°C° 0 mm 1 m/S 590 mmHg 70%
    18:00 -13°C° 0 mm 2 m/S 590 mmHg 73%
    19:00 -15°C° 0 mm 2 m/S 589 mmHg 77%
    20:00 -14°C° 0 mm 2 m/S 589 mmHg 75%
    21:00 -13°C° 0 mm 2 m/S 590 mmHg 74%
    22:00 -12°C° 0 mm 2 m/S 591 mmHg 73%
    23:00 -13°C° 0.2 mm 3 m/S 590 mmHg 77%
    Mehr zeigen